Location: Baumgartsau
(48.4586°N, 14.0864°E)
Time: 01:01:47
(UTC+00:00)

SL-16 R/B - Pass Details

Date: 12 August 2020
Orbit: 843 x 845 km, 71.0° (Epoch: 26 September)

Event Time Altitude Azimuth Distance (km) Brightness Sun altitude
Rises 22:21:48 0° 316° (NW) 3,415 6.3 -26.1°
Reaches altitude 10° 22:25:36 10° 291° (WNW) 2,473 5.0 -26.2°
Maximum altitude 22:28:09 13° 264° (W) 2,240 4.4 -26.3°
Enters shadow 22:29:22 13° 250° (WSW) 2,291 4.3 -26.3°
